Location: Betzi
(47.2343°N, 9.5260°E)
Time: 00:16:17
(UTC+00:00)

AQUA - Pass Details

Date: 27 May 2022
Orbit: 701 x 703 km, 98.2° (Epoch: 26 June)

Event Time Altitude Azimuth Distance (km) Brightness Sun altitude
Rises 01:54:37 0° 9° (N) 3,103 8.3 -13.1°
Reaches altitude 10° 01:56:55 10° 5° (N) 2,179 7.3 -12.8°
Maximum altitude 02:01:33 53° 290° (WNW) 864 4.2 -12.3°
Enters shadow 02:05:03 17° 218° (SW) 1,737 5.2 -12.0°
